TimeCDT,TemperatureF,Dew PointF,Humidity,Sea Level PressureIn,VisibilityMPH,Wind Direction,Wind SpeedMPH,Gust SpeedMPH,PrecipitationIn,Events,Conditions,WindDirDegrees,DateUTC
12:15 AM,45.5,43.9,94,30.03,7.0,North,3.5,-,N/A,,Overcast,360,2013-05-05 05:15:00
12:35 AM,45.9,43.7,92,30.03,10.0,NNE,3.5,-,N/A,,Scattered Clouds,20,2013-05-05 05:35:00
12:55 AM,45.7,43.7,93,30.02,7.0,Calm,Calm,-,N/A,,Clear,0,2013-05-05 05:55:00
1:15 AM,46.4,44.2,92,30.02,10.0,North,4.6,-,N/A,,Mostly Cloudy,10,2013-05-05 06:15:00
1:35 AM,46.4,44.4,93,30.02,7.0,Calm,Calm,-,N/A,,Overcast,0,2013-05-05 06:35:00
1:55 AM,46.4,44.6,93,30.01,7.0,North,3.5,-,N/A,,Overcast,360,2013-05-05 06:55:00
2:15 AM,46.8,45.0,93,30.01,7.0,North,4.6,-,N/A,,Overcast,360,2013-05-05 07:15:00
2:35 AM,46.8,45.0,93,30.00,7.0,NNW,4.6,-,N/A,,Overcast,330,2013-05-05 07:35:00
2:55 AM,46.9,45.0,93,30.00,7.0,Calm,Calm,-,N/A,,Overcast,0,2013-05-05 07:55:00
3:15 AM,47.3,45.0,92,30.00,7.0,NNW,3.5,-,N/A,,Overcast,340,2013-05-05 08:15:00
3:35 AM,47.7,45.5,92,30.00,7.0,North,6.9,-,N/A,,Overcast,360,2013-05-05 08:35:00
3:55 AM,48.2,45.9,92,30.00,7.0,North,5.8,-,N/A,,Overcast,10,2013-05-05 08:55:00
4:15 AM,48.2,45.9,92,30.00,7.0,North,4.6,-,N/A,,Overcast,360,2013-05-05 09:15:00
4:35 AM,48.4,46.0,92,30.00,7.0,North,5.8,-,N/A,,Overcast,360,2013-05-05 09:35:00
4:55 AM,48.6,46.2,92,30.01,7.0,North,3.5,-,N/A,Rain,Light Rain,350,2013-05-05 09:55:00
5:15 AM,48.7,46.6,92,30.01,7.0,North,4.6,-,N/A,,Overcast,360,2013-05-05 10:15:00
5:35 AM,49.1,46.6,91,30.01,7.0,North,4.6,-,N/A,,Overcast,350,2013-05-05 10:35:00
5:55 AM,49.3,46.9,92,30.01,7.0,NNW,5.8,-,N/A,,Overcast,340,2013-05-05 10:55:00
6:15 AM,49.6,47.3,92,30.01,7.0,NNW,5.8,-,N/A,,Overcast,330,2013-05-05 11:15:00
6:35 AM,50.0,47.5,91,30.01,7.0,NNW,6.9,-,N/A,,Overcast,340,2013-05-05 11:35:00
6:55 AM,50.5,47.7,90,30.02,7.0,North,5.8,-,N/A,,Overcast,350,2013-05-05 11:55:00
7:15 AM,50.9,48.0,90,30.02,7.0,North,5.8,-,N/A,,Overcast,360,2013-05-05 12:15:00
7:35 AM,50.9,48.2,90,30.02,7.0,North,4.6,-,N/A,,Overcast,360,2013-05-05 12:35:00
7:55 AM,51.1,48.4,90,30.02,7.0,North,3.5,-,N/A,,Overcast,360,2013-05-05 12:55:00
8:15 AM,52.0,49.1,90,30.02,10.0,North,4.6,-,N/A,,Overcast,360,2013-05-05 13:15:00
8:35 AM,52.7,49.6,89,30.02,10.0,North,5.8,-,N/A,,Overcast,360,2013-05-05 13:35:00
8:55 AM,53.6,50.0,88,30.02,10.0,North,5.8,-,N/A,,Overcast,10,2013-05-05 13:55:00
9:15 AM,54.1,50.5,88,30.02,10.0,North,5.8,-,N/A,,Overcast,10,2013-05-05 14:15:00
9:35 AM,55.0,51.1,86,30.02,10.0,North,8.1,-,N/A,,Overcast,360,2013-05-05 14:35:00
9:55 AM,55.4,51.4,87,30.02,10.0,NNW,5.8,-,N/A,,Overcast,340,2013-05-05 14:55:00
10:15 AM,56.1,52.0,86,30.01,10.0,NNW,5.8,-,N/A,,Overcast,330,2013-05-05 15:15:00
10:35 AM,57.6,53.1,85,30.01,10.0,NNW,8.1,-,N/A,,Overcast,340,2013-05-05 15:35:00
10:55 AM,58.5,53.4,83,30.00,10.0,NW,12.7,-,N/A,,Overcast,320,2013-05-05 15:55:00
11:15 AM,60.4,54.7,81,29.99,10.0,NNW,11.5,17.3,N/A,,Overcast,330,2013-05-05 16:15:00
11:35 AM,61.5,55.0,79,29.98,10.0,North,12.7,-,N/A,,Overcast,360,2013-05-05 16:35:00
11:55 AM,61.9,54.5,77,29.98,10.0,North,11.5,18.4,N/A,,Overcast,10,2013-05-05 16:55:00
12:15 PM,62.8,54.9,75,29.96,10.0,North,9.2,-,N/A,,Overcast,360,2013-05-05 17:15:00
12:35 PM,63.5,54.3,72,29.96,10.0,North,15.0,-,N/A,,Overcast,10,2013-05-05 17:35:00
12:55 PM,64.4,53.6,68,29.96,10.0,NNE,9.2,16.1,N/A,,Mostly Cloudy,30,2013-05-05 17:55:00
1:15 PM,65.7,54.3,67,29.95,10.0,NNE,8.1,-,N/A,,Overcast,20,2013-05-05 18:15:00
1:35 PM,65.3,52.9,64,29.96,10.0,NE,8.1,-,N/A,,Overcast,40,2013-05-05 18:35:00
1:55 PM,66.7,54.1,64,29.94,10.0,North,9.2,-,N/A,,Overcast,10,2013-05-05 18:55:00
2:15 PM,67.5,52.7,59,29.94,10.0,NNE,8.1,-,N/A,,Overcast,30,2013-05-05 19:15:00
2:35 PM,67.6,51.3,56,29.93,10.0,NNE,11.5,17.3,N/A,,Mostly Cloudy,30,2013-05-05 19:35:00
2:55 PM,66.4,51.6,59,29.93,10.0,NE,8.1,-,N/A,,Overcast,50,2013-05-05 19:55:00
3:15 PM,66.4,52.9,62,29.93,10.0,ENE,5.8,-,N/A,,Overcast,60,2013-05-05 20:15:00
3:35 PM,65.1,53.1,65,29.93,10.0,NE,8.1,-,N/A,Rain,Light Rain,40,2013-05-05 20:35:00
3:55 PM,64.9,53.1,65,29.92,10.0,NE,4.6,-,N/A,,Overcast,40,2013-05-05 20:55:00
4:15 PM,64.0,53.6,69,29.94,10.0,NE,6.9,-,N/A,,Overcast,50,2013-05-05 21:15:00
4:35 PM,58.5,53.6,84,29.94,7.0,East,6.9,-,0.08,Rain,Light Rain,90,2013-05-05 21:35:00
4:55 PM,59.7,54.3,82,29.93,10.0,Calm,Calm,-,0.08,,Overcast,0,2013-05-05 21:55:00
5:15 PM,61.3,54.9,79,29.93,10.0,NNE,3.5,-,N/A,,Mostly Cloudy,30,2013-05-05 22:15:00
5:35 PM,61.9,54.0,75,29.93,10.0,ENE,3.5,-,N/A,,Overcast,60,2013-05-05 22:35:00
5:55 PM,61.7,54.3,77,29.93,10.0,Calm,Calm,-,N/A,,Overcast,0,2013-05-05 22:55:00
6:15 PM,61.9,55.0,78,29.93,10.0,Calm,Calm,-,N/A,,Overcast,0,2013-05-05 23:15:00
6:35 PM,61.7,55.4,80,29.93,10.0,Calm,Calm,-,N/A,,Overcast,0,2013-05-05 23:35:00
6:55 PM,60.8,55.4,82,29.93,10.0,Calm,Calm,-,N/A,,Overcast,0,2013-05-05 23:55:00
7:15 PM,61.2,55.8,82,29.94,10.0,Calm,Calm,-,N/A,,Overcast,0,2013-05-06 00:15:00
7:35 PM,60.8,55.9,84,29.95,10.0,Calm,Calm,-,N/A,,Overcast,0,2013-05-06 00:35:00
7:55 PM,60.6,55.4,83,29.96,10.0,Calm,Calm,-,N/A,,Overcast,0,2013-05-06 00:55:00
8:15 PM,59.2,55.8,88,29.96,10.0,Calm,Calm,-,N/A,,Overcast,0,2013-05-06 01:15:00
8:35 PM,58.6,55.6,90,29.97,10.0,Calm,Calm,-,N/A,,Overcast,0,2013-05-06 01:35:00
8:55 PM,59.4,55.0,86,29.97,10.0,Calm,Calm,-,N/A,,Light Drizzle,0,2013-05-06 01:55:00
9:35 PM,59.4,55.2,86,29.99,10.0,Calm,Calm,-,N/A,,Light Drizzle,0,2013-05-06 02:35:00
9:55 PM,59.0,55.0,87,29.99,10.0,Calm,Calm,-,N/A,,Overcast,0,2013-05-06 02:55:00
10:15 PM,58.5,55.0,88,29.98,10.0,Calm,Calm,-,N/A,,Overcast,0,2013-05-06 03:15:00
10:35 PM,57.7,54.9,90,29.98,10.0,NW,4.6,-,N/A,,Overcast,320,2013-05-06 03:35:00
10:55 PM,57.7,55.0,91,29.99,10.0,NNW,3.5,-,N/A,,Overcast,330,2013-05-06 03:55:00
11:15 PM,57.4,54.9,91,29.99,10.0,NNW,3.5,-,N/A,,Mostly Cloudy,340,2013-05-06 04:15:00
11:35 PM,58.1,54.9,89,29.98,10.0,Calm,Calm,-,N/A,,Overcast,0,2013-05-06 04:35:00
11:55 PM,58.3,54.9,88,29.98,10.0,North,3.5,-,N/A,,Overcast,10,2013-05-06 04:55:00